TimeEST,TemperatureF,Dew PointF,Humidity,Sea Level PressureIn,VisibilityMPH,Wind Direction,Wind SpeedMPH,Gust SpeedMPH,PrecipitationIn,Events,Conditions,WindDirDegrees,DateUTC
12:15 AM,48.4,21.4,35,30.44,10.0,Calm,Calm,-,N/A,,Clear,0,2013-01-10 05:15:00
12:35 AM,49.3,21.9,34,30.44,10.0,NW,9.2,-,N/A,,Clear,320,2013-01-10 05:35:00
12:55 AM,47.8,23.7,39,30.44,10.0,NW,4.6,-,N/A,,Clear,320,2013-01-10 05:55:00
1:15 AM,47.1,23.0,39,30.44,10.0,North,3.5,-,N/A,,Clear,360,2013-01-10 06:15:00
1:35 AM,43.2,23.9,47,30.44,10.0,NW,4.6,-,N/A,,Clear,320,2013-01-10 06:35:00
1:55 AM,46.4,24.1,42,30.44,10.0,North,5.8,-,N/A,,Clear,360,2013-01-10 06:55:00
3:15 AM,42.6,25.0,50,30.45,10.0,Calm,Calm,-,N/A,,Clear,0,2013-01-10 08:15:00
3:35 AM,34.7,25.3,69,30.45,10.0,Calm,Calm,-,N/A,,Clear,0,2013-01-10 08:35:00
3:55 AM,33.1,25.7,74,30.45,10.0,SW,3.5,-,N/A,,Clear,230,2013-01-10 08:55:00
4:15 AM,35.6,25.7,67,30.45,10.0,Calm,Calm,-,N/A,,Clear,0,2013-01-10 09:15:00
4:35 AM,32.0,25.5,77,30.45,10.0,Calm,Calm,-,N/A,,Clear,0,2013-01-10 09:35:00
4:55 AM,31.8,25.5,78,30.45,10.0,Calm,Calm,-,N/A,,Clear,0,2013-01-10 09:55:00
5:15 AM,32.2,25.3,76,30.46,10.0,Calm,Calm,-,N/A,,Clear,0,2013-01-10 10:15:00
5:35 AM,31.5,24.6,76,30.47,10.0,Calm,Calm,-,N/A,,Clear,0,2013-01-10 10:35:00
5:55 AM,30.2,24.8,80,30.49,10.0,Calm,Calm,-,N/A,,Clear,0,2013-01-10 10:55:00
6:35 AM,31.1,24.8,77,30.51,10.0,Calm,Calm,-,N/A,,Clear,0,2013-01-10 11:35:00
6:55 AM,30.0,24.4,80,30.51,10.0,Calm,Calm,-,N/A,,Clear,0,2013-01-10 11:55:00
7:35 AM,29.8,24.1,79,30.54,10.0,Calm,Calm,-,N/A,,Clear,0,2013-01-10 12:35:00
7:55 AM,30.2,24.6,80,30.55,10.0,Calm,Calm,-,N/A,,Clear,0,2013-01-10 12:55:00
8:35 AM,32.9,27.5,81,30.57,10.0,Calm,Calm,-,N/A,,Clear,0,2013-01-10 13:35:00
8:55 AM,33.4,28.9,84,30.58,10.0,Calm,Calm,-,N/A,,Clear,0,2013-01-10 13:55:00
9:15 AM,37.0,28.8,72,30.59,10.0,Calm,Calm,-,N/A,,Clear,0,2013-01-10 14:15:00
9:35 AM,41.7,27.9,58,30.58,10.0,Calm,Calm,-,N/A,,Clear,0,2013-01-10 14:35:00
10:15 AM,42.8,29.1,58,30.58,10.0,Calm,Calm,-,N/A,,Clear,0,2013-01-10 15:15:00
10:35 AM,43.7,29.1,57,30.58,10.0,Calm,Calm,-,N/A,,Clear,0,2013-01-10 15:35:00
10:55 AM,45.1,31.5,59,30.57,10.0,Calm,Calm,-,N/A,,Clear,0,2013-01-10 15:55:00
11:15 AM,45.9,30.7,56,30.56,10.0,Calm,Calm,-,N/A,,Clear,0,2013-01-10 16:15:00
11:35 AM,46.6,30.0,53,30.56,10.0,Calm,Calm,-,N/A,,Clear,0,2013-01-10 16:35:00
11:55 AM,48.2,30.0,49,30.54,10.0,Calm,Calm,-,N/A,,Clear,0,2013-01-10 16:55:00
12:15 PM,49.3,29.1,46,30.53,10.0,Calm,Calm,-,N/A,,Clear,0,2013-01-10 17:15:00
12:35 PM,51.6,28.6,41,30.52,10.0,Calm,Calm,-,N/A,,Clear,0,2013-01-10 17:35:00
12:55 PM,53.4,28.8,39,30.52,10.0,Calm,Calm,-,N/A,,Clear,0,2013-01-10 17:55:00
1:15 PM,55.2,26.8,34,30.51,10.0,Calm,Calm,-,N/A,,Clear,0,2013-01-10 18:15:00
1:35 PM,55.9,27.3,33,30.50,10.0,Calm,Calm,-,N/A,,Clear,0,2013-01-10 18:35:00
1:55 PM,56.5,27.0,32,30.50,10.0,Calm,Calm,-,N/A,,Clear,0,2013-01-10 18:55:00
2:15 PM,56.3,26.4,32,30.49,10.0,Calm,Calm,-,N/A,,Clear,0,2013-01-10 19:15:00
2:35 PM,56.5,26.1,31,30.48,10.0,NNE,3.5,-,N/A,,Clear,20,2013-01-10 19:35:00
2:55 PM,56.8,27.0,32,30.49,10.0,Calm,Calm,-,N/A,,Clear,0,2013-01-10 19:55:00
3:15 PM,56.3,26.6,32,30.48,10.0,Calm,Calm,-,N/A,,Clear,0,2013-01-10 20:15:00
3:35 PM,56.3,25.9,31,30.48,10.0,Calm,Calm,-,N/A,,Clear,0,2013-01-10 20:35:00
3:55 PM,56.3,26.1,31,30.48,10.0,Calm,Calm,-,N/A,,Clear,0,2013-01-10 20:55:00
4:15 PM,55.6,27.1,34,30.48,10.0,Calm,Calm,-,N/A,,Clear,0,2013-01-10 21:15:00
4:35 PM,55.4,26.2,33,30.48,10.0,Calm,Calm,-,N/A,,Clear,0,2013-01-10 21:35:00
4:55 PM,54.0,29.3,39,30.48,10.0,Calm,Calm,-,N/A,,Clear,0,2013-01-10 21:55:00
5:15 PM,52.7,29.5,41,30.49,10.0,Calm,Calm,-,N/A,,Clear,0,2013-01-10 22:15:00
5:35 PM,50.0,32.2,50,30.49,10.0,Calm,Calm,-,N/A,,Clear,0,2013-01-10 22:35:00
5:55 PM,48.7,33.1,55,30.49,10.0,Calm,Calm,-,N/A,,Clear,0,2013-01-10 22:55:00
6:15 PM,46.8,33.3,59,30.50,10.0,SW,3.5,-,N/A,,Clear,220,2013-01-10 23:15:00
6:35 PM,46.2,32.7,59,30.50,10.0,Calm,Calm,-,N/A,,Clear,0,2013-01-10 23:35:00
6:55 PM,48.2,31.3,52,30.49,10.0,Calm,Calm,-,N/A,,Clear,0,2013-01-10 23:55:00
7:15 PM,47.8,31.5,53,30.49,10.0,Calm,Calm,-,N/A,,Clear,0,2013-01-11 00:15:00
7:35 PM,45.7,32.2,59,30.48,10.0,Calm,Calm,-,N/A,,Clear,0,2013-01-11 00:35:00
7:55 PM,45.1,32.0,60,30.48,10.0,Calm,Calm,-,N/A,,Clear,0,2013-01-11 00:55:00
8:15 PM,42.4,32.9,69,30.48,10.0,Calm,Calm,-,N/A,,Clear,0,2013-01-11 01:15:00
8:35 PM,43.3,32.9,67,30.48,10.0,Calm,Calm,-,N/A,,Clear,0,2013-01-11 01:35:00
8:55 PM,41.9,32.7,70,30.48,10.0,Calm,Calm,-,N/A,,Clear,0,2013-01-11 01:55:00
9:15 PM,41.2,32.9,72,30.48,10.0,Calm,Calm,-,N/A,,Clear,0,2013-01-11 02:15:00
9:35 PM,43.2,32.0,65,30.48,10.0,Calm,Calm,-,N/A,,Clear,0,2013-01-11 02:35:00
9:55 PM,42.4,32.2,67,30.48,10.0,Calm,Calm,-,N/A,,Clear,0,2013-01-11 02:55:00
10:15 PM,42.8,32.0,66,30.46,10.0,Calm,Calm,-,N/A,,Clear,0,2013-01-11 03:15:00
10:35 PM,41.0,32.0,70,30.46,10.0,Calm,Calm,-,N/A,,Clear,0,2013-01-11 03:35:00
10:55 PM,39.7,32.4,75,30.46,10.0,Calm,Calm,-,N/A,,Clear,0,2013-01-11 03:55:00
11:15 PM,40.3,32.0,72,30.46,10.0,Calm,Calm,-,N/A,,Clear,0,2013-01-11 04:15:00
11:35 PM,40.5,32.0,72,30.45,10.0,Calm,Calm,-,N/A,,Clear,0,2013-01-11 04:35:00
11:55 PM,39.9,32.0,73,30.44,10.0,Calm,Calm,-,N/A,,Clear,0,2013-01-11 04:55:00